Regional Weather Roundup
Issued by NWS Mobile, AL

Home | Current Version | Previous Version | Text Only | Print | Product List | Glossary On
Versions: 1 2 3 4 5 6 7 8 9 10 11 12 13 14 15 16 17 18 19 20 21 22 23 24 25 26 27 28
000
ASUS44 KMOB 171910
RWRMOB
REGIONAL WEATHER ROUNDUP
NATIONAL WEATHER SERVICE MOBILE AL
200 PM CDT THU APR 17 2014

NOTE: "FAIR" INDICATES FEW OR NO CLOUDS BELOW 12,000 FEET WITH NO
      SIGNIFICANT WEATHER AND/OR OBSTRUCTIONS TO VISIBILITY.

  * THESE STATIONS ARE PART OF THE UNIVERSITY OF SOUTH ALABAMA
    MESONET AND ARE NOT UNDER NWS OR FAA QUALITY CONTROL.

ALZ061>064-172000-
COASTAL ALABAMA

CITY           SKY/WX    TMP DP  RH WIND       PRES   REMARKS
MOBILE REG APT CLOUDY    71  56  58 VRB6      30.19F
BROOKLEY FIELD CLOUDY    70  56  61 E6        30.20F
USA CAMPUS*      N/A     72  55  56 NE6       30.18F
DOG RIVER*     NOT AVBL


CITY           SKY/WX    TMP DP  RH WIND       PRES   REMARKS
MOUNT VERNON*    N/A     70  54  56 CALM      30.21F
SARALAND*      NOT AVBL
BAY MINETTE*   NOT AVBL
LOXLEY*        NOT AVBL
ROBERTSDALE*   NOT AVBL
FAIRHOPE*      NOT AVBL
ELBERTA*       NOT AVBL
FOLEY*         NOT AVBL
GRAND BAY*       N/A     70  57  64 NE5       30.17F
DAUPHIN ISLND* NOT AVBL
BON SCOUR NWR* NOT AVBL
GULF SHORES    PTSUNNY   69  56  61 E13       30.19F

$$

ALZ051>060-172000-
INTERIOR SOUTHWEST AND SOUTH CENTRAL ALABAMA

CITY           SKY/WX    TMP DP  RH WIND       PRES   REMARKS
GREENVILLE     PTSUNNY   71  52  50 E8        30.22F
EVERGREEN      CLOUDY    69  51  52 VRB7      30.24F
CASTLEBERRY*   NOT AVBL
ATMORE*          N/A     68  55  64 E10       30.22F
DIXIE*         NOT AVBL
ANDALUSIA/OPP  MOSUNNY   76  53  44 SE14      30.22F
ANDALUSIA*     NOT AVBL
FLORALA APT    PTSUNNY   71  55  56 E12       30.22F
FLORALA*         N/A     68  52  56 N9        30.18F

$$

FLZ001>006-172000-
WESTERN FLORIDA PANHANDLE

CITY           SKY/WX    TMP DP  RH WIND       PRES   REMARKS
PENSACOLA      PTSUNNY   73  52  47 NE8       30.19F
NAS PENSACOLA  PTSUNNY   71  55  56 E15       30.18F
MILTON         CLOUDY    72  53  51 VRB6      30.20F
WHTNG S FIELD  PTSUNNY   74  53  48 E8        30.20F


CITY           SKY/WX    TMP DP  RH WIND       PRES   REMARKS
WALNUT HILL*   NOT AVBL
JAY*           NOT AVBL
DUKE FIELD     PTSUNNY   73  53  48 NE7       30.19F
CRESTVIEW      PTSUNNY   74  54  49 E9G18     30.21F
VALPARAISO     PTSUNNY   74  58  56 E7        30.19F
DESTIN         PTSUNNY   74  56  53 NE10      30.19F

$$

MSZ076-079-172000-
INTERIOR SOUTHEAST MISSISSIPPI

CITY           SKY/WX    TMP DP  RH WIND       PRES   REMARKS
LEAKESVILLE*     N/A     64  52  63 NE3       30.22F
AGRICOLA*      NOT AVBL

$$

MARINE OBSERVATIONS

STATION/POSITION TIME  TEMP    WIND        PRES    WAVE
                       AIR SEA DIR/SP/G            HT/PER
                 (UTC) (F)     (DEG/KT/KT) (MB)    (FT/S)
PASCAGOULA       1900   67      80/  9/ 14 1021.8S
PETIT BOIS ISLND 1900   63      90/ 14/ 18 1022.4S
GRAND BAY        1800   64     100/ 14     1023.0S
KATRINA CUT      1800   63      90/ 16     1023.0S
CEDAR POINT      1800   63     100/ 11     1022.0F
E DAUPHIN ISLAND 1900   64      90/ 15/ 17 1021.9F
MIDDLE BAY LIGHT 1800   66      90/  6     1021.7F
USCG MOBILE BAY  1900   68 63  100/  3/  4 1021.2F
STATE DOCKS      1900   69 62              1022.1F
MEAHER PARK      1800   70     100/  6     1022.7F
WEEKS BAY        1800   69                   N/A
FORT MORGAN      1900   65     110/ 20/ 25 1021.7F
12 S ORANGE BCH  1900   62 66   80/ 16/ 19 1022.0F   5/ 6
PENSACOLA BAY    1900   75 66   CALM  /  4 1023.0R
64 S DAUPHIN ISL 1756   66 71   80/ 23/ 29 1020.7F
67 S FORT MORGAN 1800   67                 1020.0F

$$

SELECTED LOCATIONS ACROSS THE REGION

CITY           SKY/WX    TMP DP  RH WIND       PRES   REMARKS
NEW ORLEANS    CLOUDY    65  59  81 E15G23    30.15F
GULFPORT       CLOUDY    67  57  70 SE10      30.18F
PASCAGOULA AP  CLOUDY    69  57  65 NE6       30.19F
PASCAGOULA*      N/A     66  57  72 E3        30.19F
HATTIESBURG    CLOUDY    66  53  63 E7        30.22F
LAUREL         CLOUDY    64  52  63 NE10      30.23F
MERIDIAN       CLOUDY    67  47  48 E8        30.24F
JACKSON        CLOUDY    67  49  52 SE3       30.22F
MONTGOMERY     PTSUNNY   71  50  47 E10       30.26F
TROY           SUNNY     69  52  54 E12G21    30.26F
KINSTON*       NOT AVBL
GENEVA*          N/A     68  55  64 E16       30.25F
ASHFORD*       NOT AVBL
DOTHAN         MOSUNNY   66  52  60 E13G20    30.28F
PANAMA CITY    CLOUDY    73  56  54 NE13      30.17F

$$




USA.gov is the U.S. government's official web portal to all federal, state and local government web resources and services.